AirNav   Everest Fuels
 
 463 users online  

CL01 Eagle Field Airport
Dos Palos, California, USA

GOING TO DOS PALOS?


FAA INFORMATION EFFECTIVE 16 JULY 2020

Location

FAA Identifier: CL01
Lat/Long: 36-53-59.8140N 120-40-03.6570W
36-53.996900N 120-40.060950W
36.8999483,-120.6676825
(estimated)
Elevation: 153 ft. / 47 m (estimated)
Variation: 15E (1985)
From city: 7 miles SW of DOS PALOS, CA
Time zone: UTC -7 (UTC -8 during Standard Time)
Zip code: 93622

Airport Operations

Airport use: Private use. Permission required prior to landing
Activation date: 11/1983
Control tower: no
ARTCC: OAKLAND CENTER
FSS: RANCHO MURIETA FLIGHT SERVICE STATION
Attendance: MON-FRI 1000-1700
Wind indicator: yes
Segmented circle: no

Airport Communications

WX AWOS-3 at LSN (14 nm NW): 118.675 (209-827-7084)

Nearby radio navigation aids

VOR radial/distance  VOR name  Freq  Var
PXNr010/12.3PANOCHE VORTAC112.6016E
HYPr199/23.1EL NIDO VOR/DME114.2015E

Airport Services

Runway Information

Runway 12/30

Dimensions: 2300 x 60 ft. / 701 x 18 m
Surface: asphalt, in good condition
RUNWAY 12  RUNWAY 30
Traffic pattern: rightright

Airport Ownership and Management from official FAA records

Ownership: Privately-owned
Owner: JOSEPH L. DAVIS
11100 W EAGLE AVE
FIREBAUGH, CA 93622
Phone (559) 269-7923
WORK PHONE 559-269-7923
Manager: JOE DAVIS
11100 W EAGLE AVE
FIREBAUGH, CA 93622
Phone (559) 269-7923

Airport Operational Statistics

Aircraft based on the field: 3
Single engine airplanes: 1
Multi engine airplanes: 1
Jet airplanes: 1
    

Additional Remarks

FOR CD CTC NORCAL APCH AT 916-361-0516.

Instrument Procedures

There are no published instrument procedures at CL01.

Some nearby airports with instrument procedures:

F34 - Firebaugh Airport (10 nm E)
KLSN - Los Banos Municipal Airport (14 nm NW)
KMCE - Merced Regional Airport/Macready Field (24 nm N)
KMAE - Madera Municipal Airport (27 nm E)
KMER - Castle Airport (29 nm N)
 
Loc | Ops | Rwys | IFR | FBO | Links
Com | Nav | Svcs | Stats | Notes
Area around CL01 (Eagle Field Airport)
 
Road maps at: MapQuest Bing Google
 
Aerial photo
WARNING: Photo may not be current or correct
Aerial photo of CL01 (Eagle Field Airport)
Do you have a better or more recent aerial photo of Eagle Field Airport that you would like to share? If so, please send us your photo.

 
Sectional chart

 
Airport distance calculator
Flying to Eagle Field Airport? Find the distance to fly.

From to CL01

Sunrise and sunset
Times for 07-Aug-2020
 Local
(UTC-7)
 Zulu
(UTC)
Morning civil twilight05:4712:47
Sunrise06:1513:15
Sunset20:0203:02
Evening civil twilight20:3003:30

Current date and time
Zulu (UTC)  08-Aug-2020 06:41:10
Local (UTC-7)  07-Aug-2020 23:41:10
 
METAR
KMCE 
24nm N 
080553Z AUTO 27006KT 10SM CLR 21/12 A2987 RMK AO2 SLP114 T02110122 10328 20211 52015
KMAE 
27nm E 
080553Z AUTO 30006KT 10SM CLR 23/12 A2988 RMK AO2 SLP116 T02280122 10344 20228 51013
KMER 
29nm N 
080615Z AUTO 35005KT 10SM CLR 23/14 A2988 RMK AO1
KCVH 
36nm W 
080615Z AUTO 25003KT 8SM CLR 14/12 A2998 RMK A01
KMOD 
45nm N 
080553Z AUTO 33008KT 10SM CLR 24/12 A2986 RMK AO2 SLP112 T02440122 10328 20244 51014
KE16 
46nm W 
080610Z AUTO 14004KT 10SM CLR 15/12 A2998 RMK AO2 PWINO PNO
KFAT 
46nm E 
080553Z 30007KT 10SM CLR 28/13 A2987 RMK AO2 SLP109 T02830133 10344 20283 51014
KSNS 
47nm W 
080615Z AUTO 34006KT 9SM OVC009 17/13 A2996 RMK AO2 T01670128
TAF
KMCE 
24nm N 
080520Z 0806/0906 31005KT P6SM SKC
KMER 
29nm N 
080520Z 0806/0906 32005KT P6SM SKC
NOTAMs
Click for the latest NOTAMs
NOTAMs are issued by the DoD/FAA and will open in a separate window not controlled by AirNav.

 

 
 

Things to do: Attractions on or near the airport

  
 Business Name 
 
 Contact 
 
 Services / Description 
 
Distance
 
Comments
  
Central California Historical Military Museum 209-392-8264
no information available

If you are affiliated with Central California Historical Military Museum and would like to show here your services, contact info, web link, logo, and more, click here
on airport  
   write
 

Would you like to see your business listed on this page?

 If your business provides an interesting product or service to pilots, flight crews, aircraft, or users of the Eagle Field Airport, you should consider listing it here.  To start the listing process, click on the button below
 
Add a business
 

Other Pages about Eagle Field Airport

www.eaglefield.org
 
Update a link
 
Copyright © AirNav, LLC. All rights reserved. Privacy Policy  Contact